Location: Castillon
(43.1358°N, 0.8654°E)
Time: 19:32:31
(UTC+00:00)

Cosmos 990 Rocket - Pass Details

Date: 24 January 2021
Orbit: 748 x 768 km, 74.0° (Epoch: 28 February)

Event Time Altitude Azimuth Distance (km) Brightness Sun altitude
Rises 18:29:46 0° 203° (SSW) 3,211 7.7 -16.6°
Reaches altitude 10° 18:32:08 10° 205° (SSW) 2,286 6.9 -17.0°
Maximum altitude 18:37:19 76° 291° (WNW) 785 4.1 -18.0°
Drops below altitude 10° 18:42:31 10° 17° (NNE) 2,289 6.2 -18.9°
Enters shadow 18:42:49 - 18° (NNE) 2,406 6.3 -19.0°
